User: anonymous   Login
Location: Unspecified
(0.0000°N, 0.0000°E)
Time: 17:22:31
(UTC+00:00)
Language:

STPSAT 2 (USA 217) - Orbit

View from above orbital plane
View from above orbital plane
View from above satellite
View from above satellite

Ground track
Ground track

The orbit data is extracted from the following two-line orbital elements,

1 37222U 10062A   18084.78223220 0.00000100  00000-0  13699-4 0    08
2 37222  71.9681 338.5076 0015500 340.4511  19.5489 14.78347986    04
Epoch (UTC): 25 March 2018 18:46:24
Eccentricity: 0.0015500
inclination: 71.9681°
perigee height: 623 km
apogee height: 645 km
right ascension of ascending node: 338.5076°
argument of perigee: 340.4511°
revolutions per day: 14.78347986
mean anomaly at epoch: 19.5489°
orbit number at epoch: 0

The dashed part of the orbit path shows where the satellite is in the earth's shadow,  

DLR